星链-1534 (STARLINK-1534 )

导读 | 豆包AI

STARLINK-1534是美国SpaceX公司星链星座的V1.0版本卫星,于2020年8月7日由猎鹰9号火箭成功发射,属于星链的第十批组网卫星。单星重约227公斤,运行在近地轨道,配备氪离子推进系统与相控阵天线,为全球提供低延迟宽带卫星互联网服务,是星链第一代星座规模化部署的重要组成部分。

基本信息
目录编号:
46030
目录名称:
STARLINK-1534
国际标识:
2020-055D
轨道中心:
EARTH
卫星名称:
星链-1534
卫星全名:
星链-1534 (STARLINK-1534 )
卫星状态:
已陨落 最后检测时间 2024-12-24
发射日期:
2020-08-07 UTC
国别 :
美国 (US)
星等 :
--
轨道信息
数据来源 国际轨道数据
星历时间: 2024-12-24T23:09:09+0800
轨道信息已过期490天
半长轴: 6533.942km
偏心率: 0.0003312
轨道倾角: 53.026°
近地点辐角 219.961°
升交点赤经 283.057°
平近点角 275.200°
近地点: 153.642km
远地点: 157.972km
周期: 87.604分钟
每日圈数: 16.437658
详细信息
固有亮度:
5
最大亮度:
2.5
卫星平台:
Starlink V1.0
覆盖范围:
全球
运营商:
太空探索技术公司
运营商所在国:
美国
制造商(研发单位):
太空探索技术公司
制造商所在国:
美国
使用方式:
暂无
卫星简介
星链(Starlink)计划是由太空探索技术公司(SpaceX)提出的一个巨型低轨卫星互联网星座项目,计划在2019年至2024年间在太空搭建由约1.2万颗卫星组成的“星链”网络,其中1584颗将部署在地球上空550千米处的近地轨道,并从2020年开始工作。该卫星仍在工作。